,NE_Free draining ,NW_Controlled drainage,SE-Controlled drainage,SW-Free draining 
Date&Time, Drain flow (mm/day), Drain flow (mm/day), Drain flow (mm/day), Drain flow (mm/day)
6/16/2006,0.6776,0.5892,0.601,0.2778
6/17/2006,0.6776,0.5838,0.5955,0.3004
6/18/2006,0.6969,0.5936,0.6055,0.3541
6/19/2006,1.0179,1.3517,1.3787,1.1609
6/20/2006,0.8432,0.4491,0.4581,0.5943
6/21/2006,5.8385,4.8435,4.9404,8.0189
6/22/2006,3.7715,4.2744,4.3599,5.0881
6/23/2006,4.3259,5.0919,5.1937,7.464
6/24/2006,1.2363,1.6868,1.7205,1.4904
6/25/2006,0.8413,0.9938,1.0137,0.5986
6/26/2006,0.7293,0.8251,0.8416,0.424
6/27/2006,0.7135,1.4919,1.5214,0.3492
6/28/2006,2.1514,2.1612,2.2044,2.0582
6/29/2006,5.4535,4.543,4.6339,6.9855
6/30/2006,1.1646,1.5209,1.5513,1.2528
7/1/2006,0.7824,0.9504,0.9694,0.5871
7/2/2006,0.6877,0.7885,0.8043,0.423
7/3/2006,3.8478,3.5891,3.6609,6.1851
7/4/2006,1.1197,1.482,1.5116,1.9613
7/5/2006,0.7912,0.9621,0.9813,0.9874
7/6/2006,0.6529,0.7347,0.7494,0.4556
7/7/2006,0.6125,0.6598,0.673,0.33
7/8/2006,0.6058,0.6615,0.6747,0.3352
7/9/2006,0.5968,0.667,0.6803,0.3578
7/10/2006,0.5878,0.6338,0.6465,0.3169
7/11/2006,0.5644,0.6336,0.6463,0.3254
7/12/2006,0.5297,0.6169,0.6292,0.3064
7/13/2006,0.4071,0.5524,0.5634,0.2679
7/14/2006,0.2729,0.5105,0.5207,0.26
7/15/2006,0.1249,0.4404,0.4492,0.2134
7/16/2006,0.0677,0.3688,0.3762,0.2054
7/17/2006,0.016,0.3126,0.3189,0.2399
7/18/2006,0,0.2416,0.2464,0.2438
7/19/2006,0,0.1503,0.1533,0.2058
7/20/2006,0,0.0804,0.082,0.2092
7/21/2006,0,0.0325,0.0331,0.2138
7/22/2006,0,0.0006,0.0006,0.2
7/23/2006,0,0,0,0.1469
7/24/2006,0,0,0,0.1133
7/25/2006,0,0,0,0.0906
7/26/2006,0,0,0,0.0686
7/27/2006,0,0,0,0.0305
7/28/2006,0,0,0,1.0366
7/29/2006,0,0,0,0.3074
7/30/2006,0,0,0,0.1767
7/31/2006,0,0,0,0.0962
8/1/2006,0,0,0,0.0201
8/2/2006,0,0,0,0
8/3/2006,0,0.0474,0.0483,0.2603
8/4/2006,0,0,0,0.0509
8/5/2006,0,0,0,0
8/6/2006,0,0,0,0
8/7/2006,0,0,0,0
8/8/2006,0,0,0,0
8/9/2006,0,0,0,0
8/10/2006,0,0,0,0.0096
8/11/2006,0,0,0,0
8/12/2006,0,0,0,0
8/13/2006,0,0,0,0
8/14/2006,0,0,0,0
8/15/2006,0,0,0,0
8/16/2006,0,0,0,0
8/17/2006,0,0,0,0
8/18/2006,0,0,0,0
8/19/2006,0,0,0,0
8/20/2006,0,0,0,0
8/21/2006,0,0,0,0
8/22/2006,0,0,0,0
8/23/2006,0,0,0,0
8/24/2006,0,0,0,0
8/25/2006,0,0,0,0
8/26/2006,0,0.0111,0.0113,0.007
8/27/2006,0.1537,1.2582,1.2834,3.064
8/28/2006,0,0.1831,0.1868,0.8497
8/29/2006,0.0005,0.3557,0.3628,2.8337
8/30/2006,0,0.0525,0.0536,0.272
8/31/2006,0,0,0,0.121
9/1/2006,0,0,0,0.0656
9/2/2006,0,0,0,0.0086
9/3/2006,0,0,0,0
9/4/2006,0,0,0,0
9/5/2006,0,0,0,0
9/6/2006,0,0,0,0
9/7/2006,0,0,0,0
9/8/2006,0,0,0,0
9/9/2006,0,0,0,0
9/10/2006,0,0,0,0
9/11/2006,0,0,0,0
9/12/2006,0,0,0,0
9/13/2006,0,0,0,0
9/14/2006,0,0,0,0
9/15/2006,0,0,0,0
9/16/2006,0,0,0,0
9/17/2006,0,0,0,0
9/18/2006,0,0,0,0
9/19/2006,0,0,0,0
9/20/2006,0,0,0,0
9/21/2006,0,0,0,0
9/22/2006,0,0,0,0.0264
9/23/2006,0,0,0,0
9/24/2006,0,0,0,0
9/25/2006,0,0,0,0
9/26/2006,0,0,0,0
9/27/2006,0,0.2234,0.7698,0.6575
9/28/2006,0,0.0196,2.4154,3.6695
9/29/2006,0,0,0.219,0.3923
9/30/2006,0,0,0,0.1888
10/1/2006,0,0,0,0.0997
10/2/2006,0,0,0,0.0581
10/3/2006,0,0.8386,1.8207,1.7012
10/4/2006,0,0.5949,1.4722,0.6324
10/5/2006,2.5092,3.1725,6.0507,5.8163
10/6/2006,0.9347,1.1119,1.7435,1.044
10/7/2006,0.7125,0.5604,1.4171,0.3673
10/8/2006,0.5689,0.3688,1.2733,0.2306
10/9/2006,0.3672,0.269,1.1526,0.1709
10/10/2006,0.1605,0.2252,1.1979,0.1755
10/11/2006,0.2067,0.3183,1.5551,0.4678
10/12/2006,0.5051,0.2827,1.4921,0.338
10/13/2006,0.4772,0.2298,1.2978,0.2085
10/14/2006,0.2653,0.157,1.0257,0.1134
10/15/2006,0.0666,0.091,0.8207,0.0602
10/16/2006,0.1669,0.3846,1.2801,0.4799
10/17/2006,12.6119,6,8.4,10.1098
10/18/2006,8.5605,6.25,6.841,6.7788
10/19/2006,2.6754,5.8627,2.0384,2.8332
10/20/2006,3.0295,5.4527,2.5838,4.2263
10/21/2006,1.0273,2.4605,1.6605,1.2582
10/22/2006,0.7836,1.2619,1.4906,0.7041
10/23/2006,0.746,0.8495,1.4135,0.5294
10/24/2006,0.6259,0.609,1.2382,0.5101
10/25/2006,0.5912,0.4788,1.1465,0.589
10/26/2006,0.5834,0.4367,1.1648,1.041
10/27/2006,5.6834,3.874,5.3942,6.4319
10/28/2006,9.6484,6,7.5539,8.1137
10/29/2006,2.4861,4.9651,1.8611,3.7146
10/30/2006,0.9806,2.0378,1.5277,1.8385
10/31/2006,0.7914,1.483,1.3146,1.4794
11/1/2006,0.7553,1.2452,1.3987,1.205
11/2/2006,0.699,0.8952,1.2504,0.8442
11/3/2006,0.6383,0.6569,1.1358,0.4007
11/4/2006,0.6114,0.5356,1.1052,0.2636
11/5/2006,0.6035,0.467,1.0884,0.2364
11/6/2006,0.599,0.4232,1.1036,0.2371
11/7/2006,0.7251,0.6427,1.655,0.7775
11/8/2006,0.8129,1.647,1.6799,0.5934
11/9/2006,0.7271,0.7662,1.3926,0.5141
11/10/2006,0.6832,0.6032,1.3238,0.3671
11/11/2006,0.804,0.9366,1.7697,1.2986
11/12/2006,0.8095,0.856,1.5916,0.6522
11/13/2006,0.7564,0.776,1.5472,0.5394
11/14/2006,0.7248,0.6942,1.4722,0.4597
11/15/2006,0.7712,0.8498,1.6942,1.3481
11/16/2006,11.0562,5.9216,8.3581,10.1234
11/17/2006,8.8573,6,8.0387,9.1033
11/18/2006,2.7331,5.2626,2.0237,3.6846
11/19/2006,1.011,2.2564,1.5503,1.3072
11/20/2006,0.8429,1.2917,1.3175,0.7368
11/21/2006,0.7102,0.8757,0.8932,0.4426
11/22/2006,0.6798,0.7162,0.7305,0.3795
11/23/2006,0.6473,0.6023,0.6143,0.3282
11/24/2006,0.6327,0.5276,0.5382,0.2931
11/25/2006,0.6158,0.4695,0.4789,0.2684
11/26/2006,0.599,0.4137,0.422,0.2248
11/27/2006,0.5923,0.3788,0.3864,0.2167
11/28/2006,0.5979,0.3754,0.3829,0.2425
11/29/2006,0.5912,0.3631,0.3704,0.2433
11/30/2006,2.91,1.9114,1.9496,3.2026
12/1/2006,12.7282,6,6.12,10.7289
12/2/2006,8.3799,6,6.12,5.6783
12/3/2006,3.611,5.3186,5.425,2.7998
12/4/2006,1.0698,2.5013,2.5513,0.8453
12/5/2006,0.7835,1.2632,1.4293,0.4258
12/6/2006,0.7316,0.9305,1.437,0.3999
12/7/2006,0.6293,0.6592,1.0822,0.1902
12/8/2006,0.6069,0.5099,0.9844,0.141
12/9/2006,0.6114,0.4685,1.1174,0.19
12/10/2006,0.5979,0.4178,1.0272,0.1556
12/11/2006,0.6069,0.3805,0.9578,0.1309
12/12/2006,0.7685,0.9378,1.8794,1.4048
12/13/2006,2.6951,4.633,2.652,4.9429
12/14/2006,1.0179,2.0647,1.5579,2.3105
12/15/2006,0.7926,1.139,1.3284,0.8091
12/16/2006,0.7091,0.77,1.2382,0.5147
12/17/2006,0.6675,0.617,1.1862,0.4936
12/18/2006,1.3221,2.5233,2.4357,3.3229
12/19/2006,0.9162,1.583,1.5487,1.6316
12/20/2006,0.7779,0.9899,1.4599,0.9067
12/21/2006,4.3515,3.3551,4.716,3.3151
12/22/2006,10.4623,6,8.4,7.7011
12/23/2006,5.5637,6,5.0897,5.437
12/24/2006,1.3637,3.7318,1.7357,2.2941
12/25/2006,1.5646,2.9313,2.5422,2.4604
12/26/2006,7.6871,6,7.2202,4.4935
12/27/2006,5.1851,6,5.1201,3.9835
12/28/2006,1.3789,3.8951,1.9308,2.7716
12/29/2006,0.9253,1.715,1.5809,1.9124
12/30/2006,0.814,1.1652,1.5212,1.799
12/31/2006,7.4614,3.9234,5.5174,4.6254
1/1/2007,11.2222,6,8.4,7.6449
1/2/2007,5.8349,6.25,6.1642,4.2892
1/3/2007,1.533,3.9459,1.9631,2.537
1/4/2007,0.9891,1.9058,1.7126,1.7308
1/5/2007,4.6629,3.6249,4.3991,3.8683
1/6/2007,11.6643,6,8.4,7.819
1/7/2007,7.7101,6,8.3453,6.3152
1/8/2007,4.8487,6.25,6.375,3.5396
1/9/2007,1.3326,3.7392,3.814,0.9728
1/10/2007,0.9173,1.7564,1.7915,0.6696
1/11/2007,0.8152,1.2677,1.2931,0.5951
1/12/2007,0.7361,0.9908,1.0106,0.5374
1/13/2007,10.5905,5.7217,5.8361,7.7311
1/14/2007,11.8656,6,6.12,8.6619
1/15/2007,13.1169,6,6.12,9.5753
1/16/2007,9.3975,6,6.12,6.8602
1/17/2007,NaN,NaN,NaN,NaN
1/18/2007,NaN,NaN,NaN,NaN
1/19/2007,NaN,NaN,NaN,NaN
1/20/2007,NaN,NaN,NaN,NaN
1/21/2007,0.7068,0.747,0.7619,0.7915
1/22/2007,0.681,0.6419,0.6547,0.6747
1/23/2007,0.6439,0.5552,0.5663,0.5937
1/24/2007,0.6776,0.5461,0.557,0.7374
1/25/2007,0.6832,0.5498,0.5608,0.8674
1/26/2007,0.654,0.5109,0.5211,0.7698
1/27/2007,0.6372,0.4952,0.5051,0.6357
1/28/2007,0.6237,0.439,0.4478,0.6706
1/29/2007,0.6304,0.3998,0.4078,0.636
1/30/2007,0.654,0.4375,0.4463,0.8042
1/31/2007,0.6226,0.2838,0.2895,0.7313
2/1/2007,0.5834,0,0,0.5467
2/2/2007,0.5677,0,0,0.4134
2/3/2007,0.4917,0,0,0.3134
2/4/2007,0.5454,0,0,0.475
2/5/2007,0.5375,0,0,0.4621
2/6/2007,0.6359,0,0,0.4642
2/7/2007,0.5163,0,0,0.4711
2/8/2007,0.4973,0,0,0.4697
2/9/2007,0.4227,0,0,0.4726
2/10/2007,0.4205,0,0,0.4992
2/11/2007,0.4929,0,0,0.6254
2/12/2007,0.4283,0,0,0.4743
2/13/2007,0.2519,0,0,0.4094
2/14/2007,0.211,0,0,0.5
2/15/2007,0.3694,0,0,0.6171
2/16/2007,0.2365,0,0,0.3825
2/17/2007,0.1305,0,0,0.5212
2/18/2007,0.2652,0,0,0.8475
2/19/2007,0.1647,0,0,0.5298
2/20/2007,NaN,0,0,NaN
2/21/2007,NaN,0,0,NaN
2/22/2007,NaN,0,0,NaN
2/23/2007,0.0149,0,0,0.2396
2/24/2007,0.0754,0,0,0.388
2/25/2007,0.6773,0.0029,0.003,1.1268
2/26/2007,3.2856,1.0445,1.0654,1.5566
2/27/2007,3.4626,2.0834,2.1251,1.1465
2/28/2007,3.0031,NaN,NaN,1.1607
3/1/2007,4.8603,2.9858,3.0455,1.5451
3/2/2007,8.7395,4.834,4.9307,2.4332
3/3/2007,6.635,3.7982,3.8742,2.1231
3/4/2007,2.444,2.2444,2.2893,1.1301
3/5/2007,0.9494,1.0333,1.054,0.7128
3/6/2007,0.8348,NaN,NaN,0.524
3/7/2007,0.7068,0.6662,0.6795,0.6237
3/8/2007,0.6562,0.5863,0.598,0.6121
3/9/2007,0.654,NaN,NaN,1.044
3/10/2007,0.8301,0.717,0.7313,2.4792
3/11/2007,0.7915,0.7384,0.7532,2.0992
3/12/2007,3.4936,0.8381,0.8549,2.5503
3/13/2007,0.7948,0.9025,0.9205,1.6464
3/14/2007,0.9114,1.5403,1.5711,1.4432
3/15/2007,11.8541,5.9019,6.0199,8.8551
3/16/2007,9.4391,6,6.12,7.0339
3/17/2007,3.4868,4.5299,4.6205,2.5847
3/18/2007,1.1039,1.7251,1.7596,1.6851
3/19/2007,4.7164,3.7992,3.8752,3.9651
3/20/2007,5.102,5.9301,6.0487,4.6338
3/21/2007,1.3276,3.3626,3.4299,2.3277
3/22/2007,1.0267,1.823,1.8595,2.0969
3/23/2007,11.8883,5.862,5.9792,8.7989
3/24/2007,12.6603,6,6.12,9.5113
3/25/2007,8.7793,6,6.12,6.7515
3/26/2007,2.93,5.7732,5.8887,2.7639
3/27/2007,1.1488,2.8483,2.9053,1.4554
3/28/2007,0.8809,1.5256,1.5561,1.0165
3/29/2007,0.7677,1.0761,1.0976,0.8222
3/30/2007,0.7339,0.8901,0.9079,0.9383
3/31/2007,0.7271,0.7978,0.8138,1.1119
4/1/2007,0.8085,1.133,1.1557,1.0233
4/2/2007,1.2399,NaN,NaN,0.9051
4/3/2007,1.3718,NaN,NaN,1.0014
4/4/2007,1.2159,NaN,NaN,0.8876
4/5/2007,0.9877,NaN,NaN,0.721
4/6/2007,1.1968,NaN,NaN,0.8737
4/7/2007,1.1612,NaN,NaN,0.8477
4/8/2007,0.8997,NaN,NaN,0.6568
4/9/2007,0.8226,NaN,NaN,0.6005
4/10/2007,0.8607,NaN,NaN,0.6283
4/11/2007,3.9074,NaN,NaN,2.8524
4/12/2007,10.1568,NaN,NaN,7.4145
4/13/2007,NaN,NaN,NaN,NaN
4/14/2007,NaN,NaN,NaN,NaN
4/15/2007,NaN,NaN,NaN,NaN
4/16/2007,NaN,NaN,NaN,NaN
4/17/2007,NaN,NaN,NaN,NaN
4/18/2007,NaN,NaN,NaN,NaN
4/19/2007,NaN,NaN,NaN,NaN
4/20/2007,NaN,NaN,NaN,NaN
4/21/2007,0.681,0.6243,0.6368,0.2735
4/22/2007,0.6663,0.5795,0.5911,0.3046
4/23/2007,0.6596,0.5529,0.564,0.3281
4/24/2007,0.6405,0.4855,0.4952,0.2667
4/25/2007,0.7305,0.6818,0.6954,0.4916
4/26/2007,6.5719,4.5625,4.6538,4.357
4/27/2007,11.1936,6,6.12,8.3163
4/28/2007,6.2778,6,6.12,5.3214
4/29/2007,1.4512,3.7511,3.8261,1.6189
4/30/2007,0.9538,1.8503,1.8873,0.8704
5/1/2007,0.8174,1.2081,1.2323,0.6124
5/2/2007,0.7418,0.9155,0.9338,0.4253
5/3/2007,0.7181,0.751,0.766,0.3512
5/4/2007,0.6978,0.6654,0.6787,0.3351
5/5/2007,0.6697,0.6087,0.6209,0.3043
5/6/2007,0.6315,0.5083,0.5185,0.2126
5/7/2007,0.6338,0.4818,0.4914,0.241
5/8/2007,0.6304,0.4695,0.4789,0.2738
5/9/2007,0.6282,0.4587,0.4679,0.2881
5/10/2007,0.6226,0.4394,0.4482,0.2849
5/11/2007,0.6091,0.4172,0.4255,0.2517
5/12/2007,0.6472,0.4037,0.4118,0.2237
5/13/2007,0.5945,0.3582,0.3654,0.1783
5/14/2007,0.608,0.3759,0.3834,0.2453
5/15/2007,0.6416,0.4182,0.4266,0.3703
5/16/2007,0.5889,0.4094,1.015,0
5/17/2007,0.5565,0.4187,0.9171,0
5/18/2007,0.5476,0.4872,0.9079,0
5/19/2007,0.5677,0.5947,1.1755,0
5/20/2007,0.5733,0.6809,1.4799,0
5/21/2007,0.5453,0.7126,1.6713,0
5/22/2007,0.5319,0.7357,1.8323,0.3883
5/23/2007,0.5274,0.7441,1.9706,0.4017
5/24/2007,0.551,0.313,0.8565,0.4303
5/25/2007,0.5643,0.0175,0.0184,0.4612
5/26/2007,0.5923,0.0046,0.1735,0.4998
5/27/2007,0.5889,0.0457,0.1959,0.5019
5/28/2007,0.5699,0.0591,0.1788,0.4687
5/29/2007,0.5587,0.0586,0.192,0.4492
5/30/2007,0.5621,0.0625,0.217,0.4645
5/31/2007,0.5632,0.069,0.2289,0.4701
6/1/2007,0.6013,0.0867,0.276,0.5195
6/2/2007,0.5811,0.101,0.2685,0.5364
6/3/2007,0.599,0.1827,0.3202,0.6336
6/4/2007,0.5923,0.2011,0.2673,0.6107
6/5/2007,0.533,0.144,0.1313,0.4776
6/6/2007,0.1624,0.0294,0.021,0.1186
6/7/2007,0.3036,0.0403,0.0658,0.3374
6/8/2007,NaN,0,0,NaN
6/9/2007,NaN,0,0,NaN
6/10/2007,NaN,0,0,NaN
6/11/2007,NaN,0,0,NaN
6/12/2007,NaN,0,0,NaN
6/13/2007,NaN,0,0,NaN
6/14/2007,NaN,0,0,NaN
6/15/2007,NaN,0,0,NaN
6/16/2007,0.2431,0,0,0.1775
6/17/2007,0.1477,0,0,0.1078
6/18/2007,0.0798,0,0,0.0583
6/19/2007,0.0435,0,0,0.0318
6/20/2007,0.0058,0,0,0.0042
6/21/2007,0.0038,0,0,0.0028
6/22/2007,0.0003,0,0,0.0002
6/23/2007,0,0,0,0.3666
6/24/2007,0.003,0,0,0.6401
6/25/2007,0,0,0,0.4309
6/26/2007,0,0,0,0.3405
6/27/2007,0,0,0,0.3471
6/28/2007,0,0,0,0.3604
6/29/2007,0,0,0,0.3006
6/30/2007,0,0,0,0.2633
7/1/2007,0,0,0,0.2128
7/2/2007,0,0,0,0.1601
7/3/2007,0,0,0,0.1388
7/4/2007,0,0,0,0.135
7/5/2007,0,0,0,0.1005
7/6/2007,0,0,0,0.0465
7/7/2007,0,0,0,0.0062
7/8/2007,0,0,0,0
7/9/2007,0,0,0,0
7/10/2007,0,0,0,0
7/11/2007,0,0,0,0
7/12/2007,0,0,0,0
7/13/2007,0,0,0,0
7/14/2007,0,0,0,0
7/15/2007,0,0,0,0
7/16/2007,0,0,0,0
7/17/2007,0,0,0,0
7/18/2007,0,0,0,0
7/19/2007,0,0,0,0
7/20/2007,0,0,0,0
7/21/2007,0,0,0,0
7/22/2007,0,0,0,0
7/23/2007,0,0,0,0
7/24/2007,0,0,0,0
7/25/2007,0,0,0,0
7/26/2007,0,0,0,0
7/27/2007,0,0,0,0
7/28/2007,0,0,0,0
7/29/2007,0,0,0,0
7/30/2007,0,0,0,0
7/31/2007,0,0,0,0
8/1/2007,0,0,0,0
8/2/2007,0,0,0,0
8/3/2007,0,0,0,0
8/4/2007,0,0,0,0
8/5/2007,0,0,0,0
8/6/2007,0,0,0,0
8/7/2007,0,0,0,0
8/8/2007,0,0,0,0
8/9/2007,0,0,0,0
8/10/2007,0,0,0,0
8/11/2007,0,0,0,0
8/12/2007,0,0,0,0
8/13/2007,0,0,0,0
8/14/2007,0,0,0,0
8/15/2007,0,0,0,0
8/16/2007,0,0.1702,0,0
8/17/2007,0,0,0,0
8/18/2007,0,0,0,0
8/19/2007,0,0,0,0
8/20/2007,0.1825,1.4602,0,0.8908
8/21/2007,1.7379,2.5067,1.9548,2.8785
8/22/2007,1.3406,1.6607,1.3412,2.8728
8/23/2007,0.2884,0.3653,0,0.1852
8/24/2007,0,0.013,0,0
8/25/2007,0,0,0,0
8/26/2007,0,0,0,0
8/27/2007,0,0,0,0
8/28/2007,0,0,0,0
8/29/2007,0,0,0,0
8/30/2007,0,0,0,0
8/31/2007,0,0,0,0
9/1/2007,0,0,0,0
9/2/2007,0,0,0,0
9/3/2007,0,0,0,0
9/4/2007,0,0,0,0
9/5/2007,0,0,0,0
9/6/2007,0,0,0,0
9/7/2007,0,0,0,0
9/8/2007,0,0.1046,0,0.1457
9/9/2007,0.036,0.1129,0,0
9/10/2007,0.0048,0,0,0
9/11/2007,0,0,0,0
9/12/2007,0,0,0,0
9/13/2007,0,0,0,0
9/14/2007,0,0,0,0
9/15/2007,0,0,0,0
9/16/2007,0,0,0,0
9/17/2007,0,0,0,0
9/18/2007,0,0,0,0
9/19/2007,0,0,0,0
9/20/2007,0,0,0,0
9/21/2007,0,0,0,0
9/22/2007,0,0,0,0
9/23/2007,0,0,0,0
9/24/2007,0,0,0,0
9/25/2007,0,0,0,0
9/26/2007,0,0,0,0
9/27/2007,0,0,0,0
9/28/2007,0,0,0,0
9/29/2007,0,0,0,0
9/30/2007,0,0,0,0
10/1/2007,0,0,0,0
10/2/2007,0,0,0,0
10/3/2007,0,0,0,0
10/4/2007,0,0,0,0
10/5/2007,0,0,0,0
10/6/2007,0,0,0,0
10/7/2007,0,0,0,0
10/8/2007,0,0,0,0
10/9/2007,0,0,0,0
10/10/2007,0,0,0,0
10/11/2007,0,0,0,0
10/12/2007,0,0,0,0
10/13/2007,0,0,0,0
10/14/2007,0,0,0,0
10/15/2007,0,0,0,0
10/16/2007,0,0,0,0
10/17/2007,0,0,0,0
10/18/2007,0,0,0,0
10/19/2007,0,0,0,0
10/20/2007,0,0,0,0
10/21/2007,0,0,0,0
10/22/2007,0,0,0,0
10/23/2007,0,0,0,0
10/24/2007,0,0,0,0
10/25/2007,0,0,0,0
10/26/2007,0,0,0,0
10/27/2007,0,0,0,0
10/28/2007,0,0,0,0
10/29/2007,0,0,0,0
10/30/2007,0,0,0,0
10/31/2007,0,0,0,0
11/1/2007,0,0,0,0
11/2/2007,0,0,0,0
11/3/2007,0,0,0,0
11/4/2007,0,0,0,0
11/5/2007,0,0,0,0
11/6/2007,0,0,0,0
11/7/2007,0,0,0,0
11/8/2007,0,0,0,0
11/9/2007,0,0,0,0
11/10/2007,0,0,0,0
11/11/2007,2.852,1.1939,1.2178,2.9761
11/12/2007,3.074,2.1553,2.1984,4.6522
11/13/2007,8.0886,5.9621,6.0813,7.5894
11/14/2007,1.6169,2.1167,2.159,2.665
11/15/2007,0.7848,1.0235,1.044,0.5492
11/16/2007,0.6226,0.8511,0.8681,0.1699
11/17/2007,0.5688,0.7805,0.7961,0.103
11/18/2007,0.3717,0.3998,0.4078,0.0037
11/19/2007,0.243,0.4662,0.4755,0
11/20/2007,0.2145,0.2551,0.2602,0
11/21/2007,0.2759,0,0,0.2471
11/22/2007,7.1653,2.9361,2.9948,7.3784
11/23/2007,2.3495,1.205,1.2291,3.0614
11/24/2007,0.864,0.1995,0.2035,0.8601
11/25/2007,0.7136,0.2051,0.2092,0.5935
11/26/2007,4.1647,1.7663,1.8016,3.5585
11/27/2007,4.3353,1.6322,1.6648,3.3788
11/28/2007,1.0765,0.9258,0.3373,1.1807
11/29/2007,0.7576,0.4672,0.0305,0.5286
11/30/2007,0.6405,0.2446,0.002,0.2685
12/1/2007,0.5934,0.0968,0,0.1375
12/2/2007,1.9019,1.2918,0.7247,1.9745
12/3/2007,5.9179,2.6622,2.9632,4.6357
12/4/2007,1.2752,0.9137,0.6961,1.1276
12/5/2007,0.8324,0.5642,0.2503,0.5713
12/6/2007,0.6742,0.3171,0.1005,0.3013
12/7/2007,0.6394,0.195,0.0379,0.274
12/8/2007,0.5945,0.0829,0.006,0.1742
12/9/2007,0.946,1.231,0.724,1.4385
12/10/2007,1.6466,1.5464,0.7013,2.2475
12/11/2007,7.4308,3.3549,2.2073,5.7022
12/12/2007,12.8116,4.5682,4.4314,10.398
12/13/2007,12.5773,4.6128,4.2671,9.8233
12/14/2007,8.9843,3.3646,3.2968,6.9638
12/15/2007,3.2748,1.8693,1.0869,2.9767
12/16/2007,1.3343,1.2875,0.5176,1.9328
12/17/2007,0.9993,0.7515,0.2273,1.116
12/18/2007,0.9077,0.5959,0.1936,0.8196
12/19/2007,0.9618,0.7937,0.3651,0.9151
12/20/2007,0.9959,0.708,0.249,0.8637
12/21/2007,1.142,1.2115,0.5631,1.4191
12/22/2007,6.9842,3.7653,1.9605,6.0631
12/23/2007,9.7177,4.119,3.3663,8.8479
12/24/2007,3.9246,1.7529,1.72,3.0682
12/25/2007,1.1455,0.7227,0.5607,0.9859
12/26/2007,0.882,0.6594,0.4782,1.1789
12/27/2007,0.8107,0.9644,0.6023,1.8796
12/28/2007,1.5765,1.8273,1.0439,3.1277
12/29/2007,2.2671,1.4603,0.6833,2.8278
12/30/2007,1.0166,0.7031,0.2364,1.2305
12/31/2007,0.8174,0.5308,0.1333,0.7908
1/1/2008,0.7474,0.5718,0.1633,0.9767
1/2/2008,0.6675,0.3069,0.0015,0.4673
1/3/2008,0.6607,0.1692,0.0158,0.3416
1/4/2008,0.6495,0.1507,0.0612,0.3281
1/5/2008,0.6676,0.425,0.2879,0.4665
1/6/2008,0.8753,1.8037,0.7472,2.2876
1/7/2008,0.7587,0.7712,0.2604,1.395
1/8/2008,3.2465,2.0678,1.2817,3.481
1/9/2008,12.5467,4.4293,4.3049,10.5428
1/10/2008,8.2552,3.5026,3.0677,8.2737
1/11/2008,2.9382,2.1131,0.8066,4.6241
1/12/2008,1.1096,0.8724,0.1479,1.5213
1/13/2008,0.8866,0.7645,0.2075,1.2341
1/14/2008,0.8242,0.6857,0.1115,1.0386
1/15/2008,0.7709,0.4199,0.0123,0.6151
1/16/2008,0.6978,0.2283,0,0.3767
1/17/2008,0.6877,0.1847,0.0179,0.383
1/18/2008,0.608,0.052,0,0.2432
1/19/2008,0.5834,0.0018,0,0.1602
1/20/2008,0.5051,0,0,0.0763
1/21/2008,0.4372,0,0,0.0451
1/22/2008,0.5353,0,0,0.1605
1/23/2008,0.4962,0,0,0.1058
1/24/2008,0.4106,0,0,0.0597
1/25/2008,0.2121,0,0,0.0026
1/26/2008,0.3239,0,0,0.0663
1/27/2008,0.2973,0,0,0.0453
1/28/2008,0.2554,0,0,0.0424
1/29/2008,0.4039,0,0,0.1489
1/30/2008,0.2534,0,0,0.0439
1/31/2008,0.0267,0,0,0
2/1/2008,0.1525,0,0,0.0218
2/2/2008,0.0237,0,0,0
2/3/2008,0.0063,0,0,0
2/4/2008,3.4721,0.2924,1.5015,0.1313
2/5/2008,12.601,4.5082,3.9269,6.6378
2/6/2008,13.4012,5.1757,4.4334,11.2254
2/7/2008,11.2308,3.9248,3.6715,9.0269
2/8/2008,7.0116,3.6294,2.1962,8.1592
2/9/2008,3.6807,2.8976,0.6811,6.8629
2/10/2008,1.0564,0.9811,0.0188,1.9926
2/11/2008,0.7664,0.3037,0,0.3876
2/12/2008,0.6855,0.2259,0,0.317
2/13/2008,0.5912,0.0392,0,0.1983
2/14/2008,0.5341,0,0,0.0864
2/15/2008,0.4873,0,0,0.0354
2/16/2008,0.4583,0,0,0.0145
2/17/2008,1.4084,1.378,0.3487,2.578
2/18/2008,2.6874,2.216,0.2299,4.0214
2/19/2008,0.88,0.6922,0,0.9293
2/20/2008,0.681,0.3462,0,0.3963
2/21/2008,0.6271,0.1554,0,0.1931
2/22/2008,0.608,0.0967,0,0.2187
2/23/2008,0.5442,0.0007,0,0.0985
2/24/2008,0.5308,0,0,0.0426
2/25/2008,0.5364,0,0,0.0754
2/26/2008,0.6867,0.1847,0.0272,0.2576
2/27/2008,0.5856,0.0798,0,0.2554
2/28/2008,0.5565,0.015,0,0.1694
2/29/2008,0.6464,0.3606,0.1074,0.2953
3/1/2008,0.8192,0.873,0.0515,1.0016
3/2/2008,3.8774,2.537,1.2743,3.8684
3/3/2008,11.6997,5.0886,3.7854,9.4565
3/4/2008,13.088,5.0877,3.9315,10.659
3/5/2008,10.4797,4.4011,3.4384,9.2241
3/6/2008,7.3045,3.623,2.1953,7.7542
3/7/2008,3.2763,2.3081,0.3792,3.9423
3/8/2008,1.0376,0.9238,0,1.24
3/9/2008,0.7339,0.4242,0,0.3892
3/10/2008,1.6194,1.3429,0.5412,1.9614
3/11/2008,5.9525,3.4649,1.4595,6.4477
3/12/2008,9.7205,4.3912,3.1173,8.8076
3/13/2008,9.9962,4.3922,3.1505,9.2698
3/14/2008,12.0993,4.4098,1.457,8.8325
3/15/2008,3.729,2.9957,0.1128,5.2784
3/16/2008,1.1217,1.4916,0,2.194
3/17/2008,0.8299,0.7878,0,1.0323
3/18/2008,1.8774,2.2868,0.6738,2.5475
3/19/2008,13.2362,5.23,4.047,10.3737
3/20/2008,11.0508,4.0971,3.3177,9.0449
3/21/2008,5.1726,3.09,1.1621,5.4556
3/22/2008,1.4606,1.8307,0.0361,2.4458
3/23/2008,0.9355,0.8441,0,1.0195
3/24/2008,0.7722,0.5443,0,0.5721
3/25/2008,0.7125,0.4724,0,0.4799
3/26/2008,0.6315,0.2096,0,0.3016
3/27/2008,0.6585,0.3763,0.0107,0.3786
3/28/2008,7.1729,3.5691,2.8823,6.0104
3/29/2008,2.3031,1.8025,0.4555,3.1787
3/30/2008,0.9573,0.8951,0,1.4842
3/31/2008,0.7677,1.0141,0,1.3851
4/1/2008,7.8421,3.9915,3.0809,6.8076
4/2/2008,2.9518,2.2402,0.6484,3.8116
4/3/2008,1.1374,1.0978,0,1.8552
4/4/2008,2.5772,2.6119,0.6228,3.3617
4/5/2008,1.6136,1.6511,0.0398,2.7675
4/6/2008,0.9344,0.7949,0,1.3466
4/7/2008,0.7745,1.4934,0.8463,0.7257
4/8/2008,0.7001,1.7278,0.9935,0.4497
4/9/2008,0.6349,1.1346,0.6966,0.3243
4/10/2008,0.6674,0.7319,0.7465,0.2946
4/11/2008,6.6381,5.292,7.2019,5.8042
4/12/2008,2.618,4.4337,2.3468,3.2773
4/13/2008,0.938,1.8362,0.7563,1.4577
4/14/2008,0.7395,1.165,0.6675,0.9594
4/15/2008,0.6708,0.901,0.6629,0.6341
4/16/2008,0.6271,0.7795,0.6782,0.4917
4/17/2008,0.5968,0.6749,0.623,0.3725
4/18/2008,0.5666,0.6048,0.6408,0.3296
4/19/2008,0.5912,0.57,0.6,0.3112
4/20/2008,0.5722,0.5042,0.5017,0.2246
4/21/2008,0.5476,0.4445,0.4433,0.1564
4/22/2008,0.5431,0.4197,0.4787,0.1571
4/23/2008,0.533,0.3873,0.4387,0.1345
4/24/2008,0.5464,0.3809,0.4909,0.138
4/25/2008,0.5632,0.4192,0.3584,0.2071
4/26/2008,0.5263,0.3806,0.4755,0.1576
4/27/2008,0.5252,0.3475,0.4402,0.1035
4/28/2008,0.5565,0.3918,0.5463,0.1668
4/29/2008,0.5018,0.3434,0.3632,0.1036
4/30/2008,0.5029,0.1187,0.1198,0.0309
5/1/2008,0.5163,0,0,0.0908
5/2/2008,0.5052,0,0,0.1487
5/3/2008,0.7003,0.2735,0.0669,0.6581
5/4/2008,0.6473,0.3155,0,0.2147
5/5/2008,0.6035,0.3469,0,0.1652
5/6/2008,0.5934,0.3613,0,0.1648
5/7/2008,0.5912,1.0089,0.7144,0.2301
5/8/2008,3.116,4.009,3.9806,3.0679
5/9/2008,9.2699,6,8.4,7.864
5/10/2008,3.7112,5.6883,4.0809,5.7413
5/11/2008,5.8579,5.1171,5.4927,6.4142
5/12/2008,7.9341,6,7.0816,7.9928
5/13/2008,5.3574,4.452,1.4015,3.9109
5/14/2008,1.328,3.7111,1.5932,2.7635
5/15/2008,1.0211,2.4592,1.0792,2.4644
5/16/2008,0.8401,1.4093,0.8788,1.2647
5/17/2008,0.7496,1.0363,0.8829,0.7974
5/18/2008,0.7406,0.979,0.8283,0.6888
5/19/2008,0.7147,0.8291,0.7778,0.4047
5/20/2008,0.6675,0.7297,0.7303,0.3365
5/21/2008,0.6282,0.63,0.6659,0.2659
5/22/2008,0.5923,0.5247,0.5401,0.1809
5/23/2008,0.5755,0.4486,0.4894,0.1206
5/24/2008,0.5654,0.4087,0.4833,0.1021
5/25/2008,0.5666,0.4027,0.5693,0.1303
5/26/2008,0.5632,0.4167,0.6491,0.1949
5/27/2008,0.533,0.3661,0.4863,0.1464
5/28/2008,0.5207,0.122,0.1276,0.0723
5/29/2008,0.5341,0,0,0.1044
5/30/2008,0.5498,0,0,0.1682
5/31/2008,0.5409,0,0,0.2053
6/1/2008,0.5107,0,0,0.1477
6/2/2008,0.5152,0,0,0.1271
6/3/2008,0.5531,0.0148,0,0.223
6/4/2008,11.3796,5.5313,7.7018,9.4775
6/5/2008,9.4871,5.556,6.5007,7.7576
6/6/2008,2.2165,2.9052,0.3149,2.934
6/7/2008,0.8719,1.3474,0.1287,1.4122
6/8/2008,0.7451,1.0478,0.0554,1.1617
6/9/2008,0.7091,1.4616,0.9438,0.7643
6/10/2008,10.2276,5.8681,8.1106,7.7009
6/11/2008,5.2674,5.7139,4.429,5.8659
6/12/2008,1.0932,2.5851,1.0134,1.3889
6/13/2008,1.7311,2.2473,1.8469,2.7905
6/14/2008,1.653,3.0916,1.3409,5.4201
6/15/2008,0.7949,1.4536,0.9461,1.2218
6/16/2008,0.6754,0.986,0.8222,0.6088
6/17/2008,0.6091,0.7472,0.715,0.3819
6/18/2008,0.178,0.6365,0.7089,0.3268
6/19/2008,0,0.5435,0.6445,0.261
6/20/2008,0,0.4742,0.6046,0.2139
6/21/2008,0.0025,0.5515,0.838,0.3346
6/22/2008,0,0.5872,0.8559,0.3623
6/23/2008,0,0.4867,0.6291,0.2639
6/24/2008,0,0.3978,0.4848,0.1637
6/25/2008,0.3393,0.6549,0.668,0.1648
6/26/2008,0.5442,0.4287,0.6445,0.2237
6/27/2008,0.5442,0.4436,0.7226,0.2702
6/28/2008,0.9191,1.1865,1.8088,1.7702
6/29/2008,0.885,1.6608,1.8411,4.684
6/30/2008,0.6349,1.1517,1.1786,1.3814
7/1/2008,0.58,0.9619,1.0088,0.503
7/2/2008,0.552,0.9137,1.015,0.3545
7/3/2008,0.661,1.3282,1.5279,1.6194
7/4/2008,0.636,1.1834,1.2749,1.1401